Home > Weather > Urbana > Past weeks

Flag for U.S.A. Weather for the Past 2 Weeks in Urbana, Illinois, U.S.A.

Now
19 °F

Overcast.


Feels Like: 3 °F
Forecast: 15 / 23 °F
Wind: 18 mph from Northwest

Location: University Of Illinois-Willard Airport

Current Time: Feb 9, 2016 at 2:08:59 AM

Latest Report: Feb 9, 2016 at 12:53 AM


Visibility: 10 mi

Pressure: 29.83 "Hg

Humidity: 77%

Dew point: 13 °F

Location of UrbanaLocation

Historic Weather in Urbana — Graph

°F

Urbana Temperature Yesterday

Maximum temperature yesterday: 33 °F (at 12:53 AM)
Minimum temperature yesterday: 20 °F (at 7:53 PM)
Average temperature yesterday: 25 °F

High & Low Weather Summary for the Past Weeks

 TemperatureHumidityPressure
High60 °F (Jan 31, 11:53 AM)100% (Feb 2, 1:53 PM)30.43 "Hg (Feb 2, 1:53 PM)
Low19 °F (Feb 9, 12:53 AM)43% (Feb 1, 3:53 PM)29.44 "Hg (Feb 2, 6:59 PM)
Average35 °F80%29.96 "Hg
* Reported Jan 25 12:53 AM — Feb 9 12:53 AM, Urbana, Weather by CustomWeather, © 2016

Note: Actual official high and low records may vary slightly from our data, if they occured in-between our weather recording intervals... More about our weather records

Advertising

Urbana Weather History for the Previous 24 Hours

 ConditionsComfort  
Time TempWeatherWind HumidityBarometerVisibility
12:53 AM
Tue, Feb 9
19 °FOvercast.18 mph77%29.83 "Hg10 mi
11:53 PM
Mon, Feb 8
20 °FOvercast.17 mph78%29.83 "Hg10 mi
10:53 PM20 °FLight snow. Overcast.17 mph82%29.84 "Hg8 mi
9:53 PM20 °FLight snow. Ice fog.15 mph85%29.85 "Hg6 mi
8:53 PM20 °FLight snow. Mostly cloudy.18 mph85%29.85 "Hg7 mi
7:53 PM20 °FLight snow. Overcast.18 mph82%29.86 "Hg5 mi
6:53 PM21 °FLight snow. Overcast.17 mph81%29.86 "Hg6 mi
5:53 PM21 °FLight snow. Ice fog.17 mph85%29.85 "Hg2 mi
4:53 PM22 °FLight snow. Mostly cloudy.18 mph82%29.83 "Hg2 mi
3:53 PM22 °FMostly cloudy.23 mph78%29.82 "Hg9 mi
3:04 PM22 °FLight snow. Ice fog.21 mph85%29.78 "Hg1 mi
2:53 PM22 °FSnow. Ice fog.21 mph85%29.80 "Hg0 mi
1:53 PM24 °FLight snow. Mostly cloudy.21 mph75%29.78 "Hg2 mi
12:53 PM24 °FMostly cloudy.22 mph75%29.77 "Hg7 mi
11:53 AM26 °FLight snow. More clouds than sun.21 mph81%29.77 "Hg3 mi
10:51 AM24 °FLight snow. More clouds than sun.22 mph81%29.77 "Hg2 mi
10:01 AM26 °FOvercast.25 mph77%29.74 "Hg10 mi
8:53 AM28 °FLight snow. Ice fog.22 mph72%29.73 "Hg9 mi
7:53 AM32 °FLight snow. Ice fog.14 mph85%29.71 "Hg8 mi
6:53 AM33 °FOvercast.10 mph92%29.70 "Hg10 mi
5:53 AM32 °FLight rain. Overcast.8 mph92%29.70 "Hg7 mi
4:53 AM31 °FOvercast.7 mph92%29.70 "Hg10 mi
3:53 AM31 °FPassing clouds.9 mph89%29.71 "Hg10 mi
2:53 AM30 °FClear.7 mph89%29.72 "Hg10 mi
Weather by CustomWeather, © 2016

See weather overviewHow to use our weather pages